Regional Weather Roundup
Issued by NWS Little Rock, AR

Home | Current Version | Previous Version | Graphics & Text | Print | Product List | Glossary Off
Versions: 1 2 3 4 5 6 7 8 9 10 11 12 13 14 15 16 17 18 19 20 21 22 23 24 25 26 27 28 29 30 31 32 33 34 35 36 37 38 39 40 41 42 43 44 45 46 47 48 49 50

000
ASUS44 KLZK 260905
RWRLZK

WEATHER ROUNDUP FOR ARKANSAS
NATIONAL WEATHER SERVICE LITTLE ROCK AR
400 AM CDT SUN MAR 26 2017

NOTE: "FAIR" INDICATES FEW OR NO CLOUDS BELOW 12,000 FEET WITH NO
SIGNIFICANT WEATHER AND/OR OBSTRUCTIONS TO VISIBILITY.

ARZ001-003-010-029-261000-
NORTHWEST ARKANSAS

CITY           SKY/WX    TMP DP  RH WIND       PRES   REMARKS
FAYETTEVILLE   CLOUDY    47  46  97 W3        29.92R
FORT SMITH     CLOUDY    48  44  86 CALM      29.92S
HARRISON       CLOUDY    48  45  89 W5        29.90S
BENTONVILLE    CLOUDY    46  43  87 CALM      29.91S
ROGERS         CLOUDY    46  45  96 SW6       29.92R
SILOAM SPGS    CLOUDY    45  41  87 SW3       29.92R
HIGHFILL       CLOUDY    46  45  96 SW3       29.91R
$$

ARZ004-005-016-261000-
NORTH CENTRAL ARKANSAS

CITY           SKY/WX    TMP DP  RH WIND       PRES   REMARKS
BATESVILLE     MOCLDY    50  46  87 CALM      29.91S
FLIPPIN        CLOUDY    52  41  66 CALM      29.88S
MTN HOME       CLOUDY    49  45  86 CALM      29.89S
$$

ARZ040-041-261000-
WEST CENTRAL ARKANSAS

CITY           SKY/WX    TMP DP  RH WIND       PRES   REMARKS
MENA           CLEAR     45  45 100 CALM      29.92F
MOUNT IDA      CLEAR     46  44  93 CALM      29.90R
$$

ARZ009-017-025-026-028-261000-
NORTHEAST ARKANSAS

CITY           SKY/WX    TMP DP  RH WIND       PRES   REMARKS
CORNING        CLOUDY    52  50  93 CALM      29.90F
JONESBORO      CLOUDY    52  50  93 CALM      29.90S
NEWPORT        CLOUDY    53  50  89 SW3         N/A
WALNUT RIDGE   MOCLDY    52  46  82 CALM      29.90S
BLYTHEVILLE    CLOUDY    55  52  89 CALM      29.90F
$$

ARZ022-023-033-042-044-261000-
CENTRAL ARKANSAS

CITY           SKY/WX    TMP DP  RH WIND       PRES   REMARKS
LITTLE ROCK    CLEAR     48  48 100 CALM      29.92F
N LITTLE ROCK    N/A     48  45  90 CALM      29.92S
JACKSONVILLE   CLEAR     46  46  99 CALM      29.91S
CONWAY           N/A     48  48 100 CALM      29.91S
SEARCY         CLEAR     47  47 100 W3        29.93S
HOT SPRINGS    PTCLDY    47  46  97 CALM      29.92F
RUSSELLVILLE   CLOUDY    45  44  97 CALM      29.91F
CLINTON        CLOUDY    48  46  93 CALM      29.92S
$$

ARZ036-261000-
EAST ARKANSAS

CITY           SKY/WX    TMP DP  RH WIND       PRES   REMARKS
WEST MEMPHIS   PTCLDY    54  53  97 CALM      29.90S
$$

ARZ050-053-066-070-073-261000-
SOUTHWEST ARKANSAS

CITY           SKY/WX    TMP DP  RH WIND       PRES   REMARKS
ARKADELPHIA    FAIR      51  49  92 CALM      29.93S
CAMDEN         CLEAR     50  46  87 CALM      29.93S FOG
TEXARKANA      CLEAR     51  50  96 CALM      29.91S
EL DORADO      CLEAR     51  49  92 CALM      29.92F
DE QUEEN       FOG       46  46 100 CALM      29.90F VSB 1
$$

ARZ056-057-069-261000-
SOUTHEAST ARKANSAS

CITY           SKY/WX    TMP DP  RH WIND       PRES   REMARKS
PINE BLUFF     CLEAR     52  47  83 CALM      29.93S
STUTTGART      CLEAR     52  39  62 SE5       29.94R
MONTICELLO     CLEAR     52  49  89 CALM      29.93R

$$





USA.gov is the U.S. government's official web portal to all federal, state and local government web resources and services.